When you browse on this site, cookies collect data to enhance your experience and personalize the content and advertising you see.
Visit our Privacy Policy to learn more. By continuing to use the site, you agree to this use of cookies and data.
  • In Belgium
  • List of Countries
  • For 7 days
  • Water Temperature
  • Weather Map
  • Weather Widgets
  • user-avatar
    Login

    Hourly Weather Byala

    Today, 6 June, Saturday

    Time Temperature Precipitation Wind Pressure Humidity
    00:00 +17°C° 0 mm 4 mps 748 mmHg 70%
    01:00 +17°C° 0 mm 4 mps 748 mmHg 70%
    02:00 +17°C° 0 mm 4 mps 748 mmHg 71%
    03:00 +15°C° 0 mm 4 mps 748 mmHg 73%
    04:00 +16°C° 0 mm 3 mps 748 mmHg 75%
    05:00 +14°C° 0 mm 3 mps 748 mmHg 77%
    06:00 +17°C° 0 mm 3 mps 748 mmHg 70%
    07:00 +19°C° 0 mm 3 mps 748 mmHg 63%
    08:00 +21°C° 0 mm 3 mps 748 mmHg 56%
    09:00 +24°C° 0 mm 3 mps 748 mmHg 51%
    10:00 +25°C° 0 mm 3 mps 748 mmHg 46%
    11:00 +27°C° 0 mm 4 mps 749 mmHg 41%
    12:00 +27°C° 0 mm 3 mps 748 mmHg 42%
    13:00 +28°C° 0 mm 3 mps 748 mmHg 43%
    14:00 +28°C° 0 mm 3 mps 748 mmHg 43%
    15:00 +27°C° 0 mm 3 mps 748 mmHg 48%
    16:00 +26°C° 0 mm 3 mps 747 mmHg 52%
    17:00 +25°C° 0 mm 3 mps 747 mmHg 56%
    18:00 +22°C° 0.1 mm 3 mps 747 mmHg 63%
    19:00 +20°C° 0.1 mm 3 mps 747 mmHg 70%
    20:00 +18°C° 0.1 mm 3 mps 747 mmHg 77%
    21:00 +18°C° 0.1 mm 3 mps 747 mmHg 80%
    22:00 +18°C° 0.1 mm 2 mps 747 mmHg 84%
    23:00 +17°C° 0.1 mm 2 mps 747 mmHg 87%

    Tomorrow, 7 June, Sunday

    Time Temperature Precipitation Wind Pressure Humidity
    00:00 +17°C° 0 mm 2 mps 747 mmHg 88%
    01:00 +17°C° 0 mm 2 mps 746 mmHg 88%
    02:00 +17°C° 0 mm 2 mps 746 mmHg 89%
    03:00 +17°C° 0.1 mm 3 mps 746 mmHg 89%
    04:00 +16°C° 0.1 mm 3 mps 746 mmHg 89%
    05:00 +16°C° 0.1 mm 3 mps 746 mmHg 89%
    06:00 +18°C° 0.4 mm 3 mps 746 mmHg 86%
    07:00 +19°C° 0.4 mm 3 mps 746 mmHg 84%
    08:00 +20°C° 0.4 mm 3 mps 746 mmHg 81%
    09:00 +22°C° 0.1 mm 3 mps 746 mmHg 75%
    10:00 +24°C° 0.1 mm 3 mps 746 mmHg 69%
    11:00 +26°C° 0.1 mm 3 mps 746 mmHg 63%
    12:00 +26°C° 0 mm 2 mps 746 mmHg 59%
    13:00 +27°C° 0 mm 2 mps 746 mmHg 56%
    14:00 +28°C° 0 mm 2 mps 745 mmHg 52%
    15:00 +27°C° 0 mm 2 mps 745 mmHg 57%
    16:00 +26°C° 0 mm 2 mps 745 mmHg 63%
    17:00 +25°C° 0 mm 2 mps 745 mmHg 68%
    18:00 +23°C° 0 mm 2 mps 745 mmHg 75%
    19:00 +22°C° 0 mm 1 mps 745 mmHg 82%
    20:00 +20°C° 0 mm 1 mps 745 mmHg 89%
    21:00 +19°C° 0 mm 1 mps 745 mmHg 89%
    22:00 +19°C° 0 mm 1 mps 746 mmHg 89%
    23:00 +19°C° 0 mm 1 mps 746 mmHg 89%

    Day after tomorrow, 8 June, Monday

    Time Temperature Precipitation Wind Pressure Humidity
    00:00 +18°C° 0 mm 1 mps 746 mmHg 88%
    01:00 +18°C° 0 mm 1 mps 746 mmHg 88%
    02:00 +18°C° 0 mm 1 mps 746 mmHg 88%
    03:00 +18°C° 0 mm 1 mps 746 mmHg 88%
    04:00 +17°C° 0 mm 2 mps 746 mmHg 87%
    05:00 +17°C° 0 mm 2 mps 746 mmHg 87%
    06:00 +19°C° 0 mm 2 mps 746 mmHg 81%
    07:00 +22°C° 0 mm 1 mps 746 mmHg 76%
    08:00 +24°C° 0 mm 1 mps 746 mmHg 70%
    09:00 +25°C° 0 mm 1 mps 747 mmHg 66%
    10:00 +26°C° 0 mm 1 mps 747 mmHg 61%
    11:00 +27°C° 0 mm 1 mps 747 mmHg 56%
    12:00 +27°C° 0.1 mm 2 mps 747 mmHg 57%
    13:00 +28°C° 0.1 mm 2 mps 746 mmHg 57%
    14:00 +28°C° 0.1 mm 3 mps 746 mmHg 58%
    15:00 +27°C° 0.3 mm 3 mps 746 mmHg 62%
    16:00 +26°C° 0.3 mm 3 mps 746 mmHg 66%
    17:00 +25°C° 0.3 mm 2 mps 746 mmHg 69%
    18:00 +24°C° 0.1 mm 2 mps 746 mmHg 73%
    19:00 +23°C° 0.1 mm 2 mps 746 mmHg 76%
    20:00 +20°C° 0.1 mm 2 mps 746 mmHg 80%
    21:00 +21°C° 0 mm 1 mps 746 mmHg 81%
    22:00 +21°C° 0 mm 1 mps 746 mmHg 81%
    23:00 +20°C° 0 mm 1 mps 746 mmHg 82%

    9 June, Tuesday

    Time Temperature Precipitation Wind Pressure Humidity
    00:00 +20°C° 0.2 mm 1 mps 746 mmHg 83%
    01:00 +20°C° 0.2 mm 1 mps 746 mmHg 85%
    02:00 +20°C° 0.2 mm 1 mps 746 mmHg 86%
    03:00 +20°C° 0.4 mm 1 mps 746 mmHg 87%
    04:00 +19°C° 0.4 mm 1 mps 746 mmHg 87%
    05:00 +19°C° 0.4 mm 1 mps 746 mmHg 88%
    06:00 +21°C° 0 mm 1 mps 746 mmHg 84%
    07:00 +22°C° 0 mm 1 mps 747 mmHg 80%
    08:00 +24°C° 0 mm 1 mps 747 mmHg 76%
    09:00 +25°C° 0.8 mm 1 mps 747 mmHg 73%
    10:00 +26°C° 0.8 mm 1 mps 747 mmHg 69%
    11:00 +27°C° 0.8 mm 1 mps 747 mmHg 66%
    12:00 +27°C° 0.3 mm 1 mps 747 mmHg 64%
    13:00 +27°C° 0.3 mm 2 mps 747 mmHg 61%
    14:00 +28°C° 0.3 mm 2 mps 747 mmHg 59%
    15:00 +27°C° 0.1 mm 2 mps 746 mmHg 61%
    16:00 +27°C° 0.1 mm 2 mps 746 mmHg 64%
    17:00 +26°C° 0.1 mm 2 mps 746 mmHg 66%
    18:00 +24°C° 0 mm 2 mps 746 mmHg 72%
    19:00 +23°C° 0 mm 2 mps 746 mmHg 78%
    20:00 +20°C° 0 mm 2 mps 746 mmHg 83%
    21:00 +21°C° 0 mm 1 mps 747 mmHg 84%
    22:00 +20°C° 0 mm 1 mps 747 mmHg 84%
    23:00 +20°C° 0 mm 1 mps 747 mmHg 85%

    10 June, Wednesday

    Time Temperature Precipitation Wind Pressure Humidity
    00:00 +20°C° 0 mm 1 mps 747 mmHg 85%
    01:00 +20°C° 0 mm 1 mps 747 mmHg 86%
    02:00 +19°C° 0 mm 1 mps 747 mmHg 86%
    03:00 +19°C° 0 mm 1 mps 747 mmHg 86%
    04:00 +19°C° 0 mm 1 mps 747 mmHg 86%
    05:00 +18°C° 0 mm 0 mps 747 mmHg 86%
    06:00 +19°C° 0 mm 0 mps 747 mmHg 80%
    07:00 +21°C° 0 mm 0 mps 747 mmHg 75%
    08:00 +23°C° 0 mm 0 mps 747 mmHg 70%
    09:00 +26°C° 0 mm 1 mps 748 mmHg 66%
    10:00 +27°C° 0 mm 1 mps 748 mmHg 62%
    11:00 +29°C° 0 mm 2 mps 748 mmHg 58%
    12:00 +29°C° 0 mm 2 mps 748 mmHg 58%
    13:00 +29°C° 0 mm 2 mps 747 mmHg 58%
    14:00 +29°C° 0 mm 3 mps 747 mmHg 58%
    15:00 +28°C° 0.5 mm 2 mps 747 mmHg 63%
    16:00 +27°C° 0.5 mm 2 mps 747 mmHg 68%
    17:00 +26°C° 0.5 mm 2 mps 747 mmHg 73%
    18:00 +25°C° 0.2 mm 2 mps 747 mmHg 77%
    19:00 +23°C° 0.2 mm 2 mps 747 mmHg 81%
    20:00 +21°C° 0.2 mm 2 mps 747 mmHg 85%
    21:00 +20°C° 0.1 mm 2 mps 747 mmHg 85%
    22:00 +20°C° 0.1 mm 2 mps 747 mmHg 86%
    23:00 +20°C° 0.1 mm 2 mps 747 mmHg 86%

    11 June, Thursday

    Time Temperature Precipitation Wind Pressure Humidity
    00:00 +19°C° 0.1 mm 2 mps 747 mmHg 86%
    01:00 +20°C° 0.1 mm 1 mps 747 mmHg 86%
    02:00 +20°C° 0.1 mm 1 mps 746 mmHg 86%
    03:00 +20°C° 0 mm 1 mps 746 mmHg 87%
    04:00 +20°C° 0 mm 1 mps 746 mmHg 87%
    05:00 +18°C° 0 mm 0 mps 746 mmHg 87%
    06:00 +21°C° 0.2 mm 1 mps 746 mmHg 83%
    07:00 +23°C° 0.2 mm 2 mps 746 mmHg 79%
    08:00 +24°C° 0.2 mm 2 mps 746 mmHg 75%
    09:00 +25°C° 0 mm 2 mps 746 mmHg 71%
    10:00 +26°C° 0 mm 3 mps 746 mmHg 66%
    11:00 +27°C° 0 mm 3 mps 746 mmHg 62%
    12:00 +27°C° 0 mm 3 mps 746 mmHg 61%
    13:00 +28°C° 0 mm 3 mps 746 mmHg 59%
    14:00 +28°C° 0 mm 3 mps 745 mmHg 58%
    15:00 +27°C° 0 mm 3 mps 745 mmHg 61%
    16:00 +27°C° 0 mm 3 mps 745 mmHg 63%
    17:00 +26°C° 0 mm 4 mps 744 mmHg 66%
    18:00 +24°C° 0.3 mm 3 mps 744 mmHg 73%
    19:00 +21°C° 0.3 mm 2 mps 745 mmHg 81%
    20:00 +19°C° 0.3 mm 2 mps 745 mmHg 88%
    21:00 +19°C° 0.2 mm 2 mps 745 mmHg 88%
    22:00 +18°C° 0.2 mm 2 mps 745 mmHg 88%
    23:00 +18°C° 0.2 mm 2 mps 745 mmHg 88%
    Show more